{"data":{"norad_id":53722,"epoch":"2026-09-20T21:02:14.206848Z","epoch_age_seconds":49738,"freshness":"FRESH","line1":"1 53722U 22107Y   26263.87655332  .00000386  00000+0  22556-4 0  9999","line2":"2 53722  53.1602  83.6554 0001300  92.0031 268.1121 15.34390208224068","mean_motion":15.34390208,"eccentricity":0.00013,"inclination_deg":53.1602,"raan_deg":83.6554,"arg_perigee_deg":92.0031,"mean_anomaly_deg":268.1121,"bstar":2.2556e-5,"rev_number":22406,"period_min":93.848356988472,"perigee_km":461.8430312347,"apogee_km":463.62165726421,"semimajor_km":6840.8693442495,"source":"CELESTRAK","updated_at":"2026-09-21T09:00:32.985692Z"}}